"startDT [UTC]","vpos","CH4 [ppm]","stdev(CH4) [ppm]","CO2 [ppm]","stdev(CO2) [ppm]","H2O_reported [%]","stdev(H2O_reported)","CavityPressure [torr]","CavityTemp [C]","OutletValve","CH4_dry [ppm]","CO2_dry [ppm]","DasTemp [C]","EtalonTemp [C]","WarmBoxTemp [C]","MPVPosition","T_ECpre [C]","T_EC1 [C]","T_EC2 [C]","p_inlet [hPa]","p_in [hPa]","p_out [hPa]","T_inlet [C]","RH_inlet [%]","dwpt_inlet [C]","T_vent [C]","RH_vent [%]","dwpt_vent [C]","flow_vent [l min-1]","flow_inlet [l min-1]","dwpt_sample [C]","T_room [C]"
2015-05-10 00:00:00,3.0,1.87853,0.01063,399.061,1.905,0.0579,0.0842,139.873,45.000,31094.01874,1.88119,399.532,32.463,45.068,45.000,0.00,0.09,-272.71,-272.78,0,490,-1,20.7,8.5,-14.0,20.4,8.7,-13.9,5.73,1.94,-11.0,25.2
2015-05-10 00:01:00,3.0,1.87678,0.00031,397.200,0.062,0.0151,0.0023,139.996,45.000,30927.04254,1.87702,397.277,32.456,45.068,45.000,0.00,0.09,-272.72,-272.78,-0,490,-1,20.8,8.5,-14.0,20.4,8.7,-13.9,5.73,1.99,-11.0,25.2
2015-05-10 00:02:00,3.0,1.87686,0.00040,397.263,0.085,0.0146,0.0018,139.993,45.000,30873.31424,1.87714,397.327,32.438,45.068,45.000,0.00,0.09,-272.72,-272.78,-0,490,-1,20.8,8.5,-14.0,20.4,8.7,-13.9,5.73,1.95,-11.0,25.2
2015-05-10 00:03:00,3.0,1.87643,0.00044,397.506,0.055,0.0130,0.0019,139.998,45.000,30834.32886,1.87667,397.566,32.439,45.068,45.000,0.00,0.09,-272.72,-272.77,-0,490,-1,20.8,8.5,-13.9,20.4,8.7,-13.9,5.73,1.89,-11.0,25.2
2015-05-10 00:04:00,3.0,1.87641,0.00036,397.578,0.030,0.0110,0.0012,140.000,45.000,30801.71116,1.87660,397.630,32.436,45.068,45.000,0.00,0.09,-272.72,-272.78,-0,490,-1,20.8,8.5,-13.9,20.4,8.8,-13.8,5.73,1.88,-11.0,25.2
2015-05-10 00:05:00,3.0,1.87697,0.00032,397.617,0.038,0.0086,0.0021,140.000,45.000,30772.09985,1.87712,397.658,32.428,45.068,45.000,0.00,0.09,-272.73,-272.78,-0,490,-1,20.8,8.5,-13.9,20.5,8.8,-13.8,5.73,1.94,-11.0,25.2
2015-05-10 00:06:00,3.0,1.87677,0.00039,397.653,0.038,0.0076,0.0025,140.000,45.000,30748.89324,1.87694,397.689,32.433,45.068,45.000,0.00,0.09,-272.72,-272.77,-0,491,-1,20.8,8.5,-13.9,20.5,8.8,-13.8,5.73,2.00,-11.0,25.2
2015-05-10 00:07:00,3.0,1.87647,0.00033,397.612,0.030,0.0062,0.0015,139.999,45.000,30732.26298,1.87659,397.643,32.438,45.068,45.000,0.00,0.09,-272.72,-272.77,-0,491,-1,20.9,8.5,-13.9,20.5,8.8,-13.8,5.73,1.97,-11.0,25.3
2015-05-10 00:08:00,3.0,1.87660,0.00028,397.653,0.041,0.0030,0.0023,139.999,45.000,30715.47916,1.87662,397.666,32.436,45.068,45.000,0.00,0.09,-272.72,-272.79,0,491,-1,20.8,8.5,-13.9,20.5,8.7,-13.8,5.73,1.87,-11.0,25.3
2015-05-10 00:09:00,3.0,1.87671,0.00046,397.647,0.032,0.0040,0.0018,140.001,45.000,30703.85071,1.87681,397.666,32.431,45.069,45.000,0.00,0.09,-272.73,-272.78,0,491,-1,20.8,8.5,-13.9,20.5,8.8,-13.8,5.73,1.87,-11.0,25.3
2015-05-10 00:10:00,3.0,1.87690,0.00039,397.660,0.031,0.0029,0.0017,139.997,45.000,30692.70323,1.87695,397.676,32.433,45.068,45.000,0.00,0.09,-272.71,-272.77,-0,491,-1,20.8,8.6,-13.8,20.5,8.8,-13.7,5.73,1.98,-11.0,25.3
2015-05-10 00:11:00,3.0,1.87663,0.00030,397.639,0.036,0.0025,0.0019,140.002,45.000,30687.05198,1.87671,397.650,32.438,45.069,45.000,0.00,0.09,-272.72,-272.78,-0,492,-1,20.8,8.6,-13.8,20.5,8.8,-13.7,5.73,2.00,-11.0,25.3
2015-05-10 00:12:00,3.0,1.87672,0.00030,397.675,0.029,0.0021,0.0018,140.000,45.000,30679.07768,1.87673,397.684,32.438,45.068,45.000,0.00,0.09,-272.72,-272.78,-0,492,-1,20.8,8.6,-13.8,20.5,8.8,-13.7,5.73,1.90,-11.0,25.3
2015-05-10 00:13:00,3.0,1.87672,0.00036,397.673,0.033,0.0026,0.0025,139.998,45.000,30673.22176,1.87679,397.687,32.439,45.068,45.000,0.00,0.09,-272.72,-272.79,-0,492,-1,20.8,8.6,-13.7,20.5,8.9,-13.6,5.73,1.86,-11.0,25.4
2015-05-10 00:14:00,3.0,1.87653,0.00039,397.679,0.040,0.0017,0.0017,139.998,45.000,30669.24798,1.87655,397.689,32.444,45.068,45.000,0.00,0.09,-272.72,-272.77,-0,493,-1,20.8,8.6,-13.8,20.5,8.9,-13.7,5.73,1.96,-11.0,25.4
2015-05-10 00:15:00,3.0,1.87681,0.00034,397.663,0.029,0.0020,0.0011,140.001,45.000,30664.92297,1.87686,397.672,32.462,45.068,45.000,0.00,0.09,-272.73,-272.79,-0,493,-1,20.9,8.7,-13.6,20.5,8.9,-13.6,5.73,2.01,-11.0,25.4
2015-05-10 00:16:00,3.0,1.87700,0.00026,397.675,0.032,0.0018,0.0017,140.000,45.000,30662.59877,1.87701,397.684,32.480,45.068,45.000,0.00,0.09,-272.72,-272.78,1,493,-1,20.8,8.7,-13.6,20.5,9.0,-13.5,5.73,1.89,-11.0,25.4
2015-05-10 00:17:00,3.0,1.87679,0.00031,397.680,0.028,0.0013,0.0022,139.999,45.000,30662.28377,1.87682,397.684,32.487,45.068,45.000,0.00,0.09,-272.72,-272.78,-0,493,-1,20.9,8.8,-13.5,20.5,9.0,-13.4,5.73,1.86,-11.0,25.4
2015-05-10 00:18:00,3.0,1.87673,0.00027,397.670,0.032,0.0006,0.0021,139.997,45.000,30658.13228,1.87676,397.673,32.496,45.068,45.000,0.00,0.09,-272.73,-272.78,-1,494,-1,20.9,8.8,-13.5,20.5,9.0,-13.4,5.73,1.98,-11.0,25.4
2015-05-10 00:19:00,3.0,1.87691,0.00035,397.684,0.022,0.0013,0.0018,140.001,45.000,30657.28068,1.87691,397.690,32.494,45.068,45.000,0.00,0.09,-272.72,-272.78,-0,494,-1,20.9,8.7,-13.5,20.5,9.0,-13.5,5.73,2.00,-10.9,25.4
2015-05-10 00:20:00,0.0,1.90587,0.00665,403.112,1.812,0.2451,0.0822,140.101,45.000,33452.66276,1.90884,404.110,32.477,45.068,45.000,0.00,0.09,-272.71,-272.77,0,958,-1,20.9,8.7,-13.5,20.5,9.0,-13.5,5.73,1.91,-11.0,25.4
2015-05-10 00:21:00,0.0,1.90690,0.00045,403.795,0.029,0.2852,0.0023,140.005,45.000,33679.49929,1.91230,405.192,32.467,45.068,45.000,0.00,0.09,-272.72,-272.77,0,957,-1,20.9,8.7,-13.5,20.5,9.0,-13.5,5.73,1.92,-10.9,25.4
2015-05-10 00:22:00,0.0,1.90689,0.00044,403.777,0.031,0.2856,0.0026,140.004,45.000,33737.38379,1.91230,405.174,32.442,45.069,45.000,0.00,0.09,-272.72,-272.78,-0,959,-1,21.0,8.7,-13.5,20.6,9.0,-13.5,5.73,2.03,-10.9,25.4
2015-05-10 00:23:00,0.0,1.90661,0.00046,403.777,0.037,0.2890,0.0020,140.000,45.000,33777.21792,1.91209,405.191,32.441,45.069,45.000,0.00,0.09,-272.71,-272.78,-0,958,-1,21.0,8.8,-13.5,20.6,9.0,-13.4,5.73,1.95,-10.9,25.4
2015-05-10 00:24:00,0.0,1.90646,0.00024,403.785,0.028,0.2884,0.0018,140.002,45.000,33815.26879,1.91193,405.197,32.447,45.069,45.000,0.00,0.09,-272.71,-272.77,1,959,-1,20.9,8.7,-13.5,20.6,9.0,-13.4,5.73,1.87,-10.9,25.4
2015-05-10 00:25:00,0.0,1.90649,0.00036,403.787,0.027,0.2886,0.0017,140.000,45.000,33844.39837,1.91193,405.199,32.458,45.069,45.000,0.00,0.09,-272.73,-272.78,0,959,-1,20.9,8.7,-13.5,20.6,9.0,-13.4,5.73,2.01,-10.9,25.4
2015-05-10 00:26:00,0.0,1.90688,0.00047,403.785,0.029,0.2875,0.0014,140.004,45.000,33866.84661,1.91228,405.192,32.473,45.068,45.000,0.00,0.09,-272.72,-272.77,0,959,-1,20.9,8.7,-13.6,20.6,9.0,-13.5,5.73,2.00,-10.9,25.4
2015-05-10 00:27:00,0.0,1.90685,0.00043,403.781,0.025,0.2899,0.0012,140.001,45.000,33886.09448,1.91236,405.199,32.450,45.068,45.000,0.00,0.09,-272.72,-272.77,-0,958,-1,20.9,8.7,-13.5,20.6,9.0,-13.4,5.73,1.87,-10.9,25.4
2015-05-10 00:28:00,0.0,1.90663,0.00032,403.760,0.030,0.2922,0.0018,139.997,45.000,33902.26324,1.91216,405.192,32.472,45.068,45.000,0.00,0.09,-272.72,-272.77,1,959,-1,20.9,8.8,-13.4,20.6,9.0,-13.3,5.73,1.97,-10.9,25.4
2015-05-10 00:29:00,0.0,1.90664,0.00036,403.761,0.034,0.2930,0.0014,139.997,45.000,33916.77007,1.91220,405.195,32.484,45.068,45.000,0.00,0.09,-272.72,-272.78,1,958,-1,20.9,8.8,-13.4,20.6,9.1,-13.3,5.73,2.02,-10.9,25.4
2015-05-10 00:30:00,0.0,1.90653,0.00040,403.739,0.034,0.2933,0.0022,140.000,45.000,33931.13975,1.91207,405.173,32.475,45.068,45.000,0.00,0.09,-272.72,-272.77,-0,959,-1,20.9,8.8,-13.4,20.6,9.1,-13.3,5.73,1.87,-10.9,25.4
2015-05-10 00:31:00,0.0,1.90608,0.00034,403.726,0.030,0.2974,0.0019,139.999,45.000,33943.23716,1.91171,405.182,32.449,45.068,45.000,0.00,0.09,-272.72,-272.77,-0,959,-1,20.9,8.9,-13.2,20.6,9.2,-13.1,5.73,1.94,-10.9,25.4
2015-05-10 00:32:00,0.0,1.90619,0.00034,403.744,0.039,0.2922,0.0023,140.001,45.000,33952.68718,1.91171,405.173,32.476,45.068,45.000,0.00,0.09,-272.73,-272.79,0,960,-1,21.0,8.8,-13.4,20.6,9.1,-13.2,5.73,2.03,-10.9,25.4
2015-05-10 00:33:00,0.0,1.90631,0.00043,403.762,0.035,0.2892,0.0014,140.001,45.000,33960.49694,1.91181,405.178,32.483,45.068,45.000,0.00,0.09,-272.72,-272.77,0,959,-1,21.0,8.7,-13.6,20.6,9.0,-13.4,5.73,1.93,-10.9,25.4
2015-05-10 00:34:00,0.0,1.90599,0.00023,403.763,0.030,0.2921,0.0020,139.998,45.000,33966.68500,1.91148,405.191,32.496,45.068,45.000,0.00,0.09,-272.72,-272.77,-0,960,-1,21.0,8.8,-13.4,20.6,9.0,-13.4,5.73,1.88,-10.9,25.4
2015-05-10 00:35:00,0.0,1.90612,0.00026,403.733,0.036,0.2960,0.0019,139.999,45.000,33971.86336,1.91171,405.182,32.500,45.068,45.000,0.00,0.09,-272.73,-272.77,-0,959,-1,21.0,8.9,-13.3,20.7,9.1,-13.2,5.73,2.04,-10.9,25.4
2015-05-10 00:36:00,0.0,1.90620,0.00039,403.732,0.024,0.2969,0.0015,140.000,45.000,33976.07401,1.91181,405.186,32.504,45.068,45.000,0.00,0.09,-272.72,-272.76,0,960,-1,21.0,8.9,-13.3,20.6,9.2,-13.2,5.73,1.95,-10.9,25.4
2015-05-10 00:37:00,0.0,1.90603,0.00032,403.751,0.037,0.2974,0.0015,140.000,45.000,33979.24682,1.91167,405.206,32.505,45.068,45.000,0.00,0.09,-272.73,-272.77,1,959,-1,21.0,8.9,-13.2,20.6,9.2,-13.1,5.73,1.87,-10.9,25.5
2015-05-10 00:38:00,0.0,1.90602,0.00053,403.729,0.023,0.2961,0.0012,139.997,45.000,33981.95307,1.91164,405.179,32.502,45.068,45.000,0.00,0.09,-272.69,-272.77,-0,959,-1,20.9,8.9,-13.3,20.6,9.2,-13.2,5.73,2.03,-10.9,25.5
2015-05-10 00:39:00,0.0,1.90613,0.00034,403.720,0.024,0.2943,0.0014,140.001,45.000,33988.54489,1.91167,405.161,32.503,45.068,45.000,0.00,0.09,-272.71,-272.78,0,959,-1,20.9,8.8,-13.4,20.6,9.1,-13.2,5.73,1.95,-10.9,25.5
2015-05-10 00:40:00,0.0,1.90604,0.00039,403.740,0.042,0.2965,0.0025,139.998,45.000,33990.88524,1.91163,405.190,32.501,45.069,45.000,0.00,0.09,-272.71,-272.78,0,958,-1,21.0,8.9,-13.3,20.6,9.1,-13.2,5.73,1.87,-10.9,25.4
2015-05-10 00:41:00,0.0,1.90588,0.00025,403.734,0.030,0.2989,0.0017,140.004,45.000,33995.16330,1.91156,405.197,32.500,45.069,45.000,0.00,0.09,-272.72,-272.77,0,960,-1,21.0,9.0,-13.2,20.6,9.2,-13.1,5.73,2.01,-10.9,25.4
2015-05-10 00:42:00,0.0,1.90587,0.00036,403.711,0.030,0.3011,0.0017,140.001,45.000,33996.79795,1.91157,405.185,32.501,45.069,45.000,0.00,0.09,-272.72,-272.79,-0,958,-1,21.0,9.0,-13.1,20.7,9.3,-13.0,5.73,1.99,-10.9,25.4
2015-05-10 00:43:00,0.0,1.90577,0.00031,403.697,0.028,0.2999,0.0018,140.002,45.000,33998.67372,1.91144,405.165,32.504,45.068,45.000,0.00,0.09,-272.72,-272.78,-0,961,-1,21.0,9.0,-13.1,20.6,9.3,-13.0,5.73,1.86,-10.9,25.4
2015-05-10 00:44:00,0.0,1.90604,0.00052,403.705,0.034,0.2972,0.0019,140.001,45.000,33998.96984,1.91165,405.159,32.526,45.068,45.000,0.00,0.09,-272.71,-272.77,0,959,-1,21.0,8.9,-13.3,20.7,9.2,-13.1,5.73,1.98,-10.8,25.4
2015-05-10 00:45:00,0.0,1.90602,0.00042,403.722,0.033,0.2954,0.0013,140.002,45.000,34002.00572,1.91161,405.167,32.560,45.068,45.000,0.00,0.09,-272.73,-272.77,0,960,-1,21.0,8.8,-13.3,20.7,9.1,-13.2,5.73,2.02,-10.8,25.4
2015-05-10 00:46:00,0.0,1.90596,0.00039,403.712,0.030,0.2971,0.0014,140.005,45.000,34003.33426,1.91157,405.167,32.563,45.068,45.000,0.00,0.09,-272.72,-272.78,-0,959,-1,21.0,8.8,-13.3,20.7,9.1,-13.2,5.73,1.89,-10.8,25.4
2015-05-10 00:47:00,0.0,1.90594,0.00027,403.685,0.030,0.2992,0.0014,140.001,45.000,34004.95306,1.91161,405.150,32.560,45.068,44.999,0.00,0.09,-272.71,-272.77,0,959,-1,21.1,8.9,-13.1,20.7,9.2,-13.1,5.73,1.91,-10.8,25.4
2015-05-10 00:48:00,0.0,1.90590,0.00032,403.699,0.024,0.2987,0.0016,139.999,45.000,34005.91502,1.91153,405.161,32.562,45.068,45.000,0.00,0.09,-272.73,-272.78,-0,960,-1,21.1,8.9,-13.2,20.7,9.2,-13.1,5.73,2.03,-10.8,25.4
2015-05-10 00:49:00,0.0,1.90602,0.00041,403.734,0.031,0.2935,0.0019,139.999,45.000,34006.59109,1.91157,405.170,32.539,45.068,45.000,0.00,0.09,-272.72,-272.77,1,960,-1,21.1,8.8,-13.4,20.7,9.1,-13.2,5.73,1.96,-10.8,25.4
2015-05-10 00:50:00,0.0,1.90635,0.00023,403.756,0.022,0.2929,0.0021,139.999,45.000,34007.60662,1.91186,405.190,32.527,45.068,45.000,0.00,0.09,-272.72,-272.78,-0,962,-1,21.1,8.8,-13.4,20.7,9.0,-13.3,5.73,1.87,-10.9,25.4
2015-05-10 00:51:00,0.0,1.90612,0.00033,403.727,0.028,0.2973,0.0024,140.004,45.000,34010.66455,1.91178,405.182,32.514,45.068,45.000,0.00,0.09,-272.72,-272.77,-0,960,-1,21.1,8.9,-13.2,20.7,9.1,-13.2,5.73,1.98,-10.8,25.4
2015-05-10 00:52:00,0.0,1.90574,0.00024,403.687,0.042,0.3021,0.0016,140.001,45.000,34012.51416,1.91143,405.167,32.500,45.068,45.000,0.00,0.09,-272.71,-272.78,0,961,-1,21.1,9.0,-13.1,20.7,9.2,-13.0,5.73,2.02,-10.8,25.4
2015-05-10 00:53:00,0.0,1.90621,0.00038,403.710,0.028,0.3047,0.0018,140.001,45.000,34008.56136,1.91200,405.201,32.509,45.068,45.000,0.00,0.09,-272.72,-272.77,-0,960,-1,21.1,9.0,-13.0,20.7,9.3,-12.9,5.73,1.90,-10.8,25.4
2015-05-10 00:54:00,0.0,1.90586,0.00036,403.720,0.026,0.3045,0.0020,140.002,45.000,34013.14974,1.91163,405.211,32.500,45.069,45.000,0.00,0.09,-272.71,-272.77,1,960,-1,21.1,9.1,-12.9,20.7,9.3,-12.9,5.73,1.89,-10.8,25.4
2015-05-10 00:55:00,0.0,1.90579,0.00049,403.689,0.014,0.3061,0.0014,140.003,45.000,34013.32160,1.91151,405.189,32.500,45.068,45.000,0.00,0.09,-272.73,-272.78,-1,962,-1,21.1,9.0,-13.0,20.7,9.3,-12.9,5.73,2.02,-10.8,25.4
2015-05-10 00:56:00,0.0,1.90594,0.00032,403.699,0.031,0.3010,0.0017,139.996,45.000,34011.06595,1.91170,405.172,32.500,45.068,45.000,0.00,0.09,-272.72,-272.78,-1,961,-1,21.1,9.0,-13.1,20.7,9.3,-13.0,5.73,1.99,-10.8,25.4
2015-05-10 00:57:00,0.0,1.90635,0.00044,403.704,0.037,0.3015,0.0011,139.999,45.000,34014.72009,1.91202,405.180,32.500,45.068,45.000,0.00,0.09,-272.72,-272.77,0,961,-1,21.1,9.0,-13.1,20.7,9.2,-13.0,5.73,1.86,-10.8,25.4
2015-05-10 00:58:00,0.0,1.90714,0.00067,403.691,0.034,0.3022,0.0013,139.999,45.000,34011.03696,1.91282,405.172,32.500,45.068,45.000,0.00,0.09,-272.71,-272.78,-0,962,-1,21.1,9.0,-13.1,20.7,9.3,-13.0,5.73,1.96,-10.8,25.4
2015-05-10 00:59:00,0.0,1.90725,0.00042,403.689,0.027,0.3025,0.0020,140.003,45.000,34012.99541,1.91298,405.169,32.500,45.068,45.000,0.00,0.09,-272.73,-272.77,0,960,-1,21.1,9.0,-13.1,20.7,9.3,-13.0,5.73,2.03,-10.8,25.4
2015-05-10 01:00:00,0.0,1.90745,0.00042,403.713,0.047,0.2989,0.0017,140.000,45.000,34010.17538,1.91308,405.174,32.503,45.068,45.000,0.00,0.09,-272.71,-272.77,-1,962,-1,21.1,8.9,-13.2,20.7,9.2,-13.1,5.73,1.91,-10.8,25.4
2015-05-10 01:01:00,0.0,1.90772,0.00033,403.730,0.036,0.2991,0.0016,140.001,45.000,34010.23649,1.91336,405.195,32.535,45.068,45.000,0.00,0.09,-272.70,-272.77,-0,960,-1,21.1,8.8,-13.3,20.7,9.2,-13.1,5.73,1.89,-10.8,25.4
2015-05-10 01:02:00,0.0,1.90768,0.00043,403.744,0.034,0.2970,0.0020,140.000,45.000,34010.76840,1.91333,405.198,32.563,45.068,45.000,0.00,0.09,-272.73,-272.77,0,962,-1,21.1,8.8,-13.3,20.7,9.1,-13.2,5.73,2.02,-10.8,25.4
2015-05-10 01:03:00,0.0,1.90741,0.00050,403.737,0.022,0.2989,0.0016,140.000,45.000,34011.27359,1.91311,405.200,32.568,45.068,45.000,0.00,0.09,-272.72,-272.78,0,960,-1,21.1,8.8,-13.3,20.7,9.1,-13.1,5.73,1.96,-10.8,25.4
2015-05-10 01:04:00,0.0,1.90599,0.00052,403.730,0.023,0.3032,0.0028,139.999,45.000,34012.17508,1.91178,405.213,32.610,45.068,45.000,0.00,0.09,-272.71,-272.77,-1,961,-1,21.1,9.0,-13.1,20.7,9.2,-13.0,5.73,1.87,-10.8,25.4
2015-05-10 01:05:00,0.0,1.90566,0.00037,403.693,0.028,0.3113,0.0018,139.997,45.000,34009.36373,1.91155,405.218,32.624,45.068,45.000,0.00,0.09,-272.72,-272.78,-0,960,-1,21.1,9.2,-12.8,20.7,9.4,-12.7,5.73,2.01,-10.8,25.4
2015-05-10 01:06:00,0.0,1.90587,0.00043,403.684,0.040,0.3122,0.0020,139.999,45.000,34009.49268,1.91175,405.212,32.625,45.068,44.999,0.00,0.09,-272.73,-272.78,-0,961,-1,21.1,9.2,-12.7,20.7,9.5,-12.6,5.73,1.99,-10.8,25.5
2015-05-10 01:07:00,0.0,1.90625,0.00046,403.704,0.037,0.3073,0.0016,140.002,45.000,34011.06661,1.91202,405.208,32.625,45.068,45.000,0.00,0.09,-272.71,-272.78,0,959,-1,21.1,9.1,-12.9,20.7,9.4,-12.8,5.73,1.87,-10.8,25.5
2015-05-10 01:08:00,0.0,1.90704,0.00052,403.685,0.028,0.3078,0.0017,140.002,45.000,34013.89110,1.91282,405.193,32.625,45.068,45.000,0.00,0.09,-272.72,-272.78,-0,961,-1,21.1,9.1,-12.9,20.7,9.4,-12.8,5.73,1.94,-10.7,25.5
2015-05-10 01:09:00,0.0,1.90782,0.00042,403.726,0.043,0.2972,0.0050,140.001,45.000,34011.31175,1.91345,405.181,32.625,45.068,45.000,0.00,0.09,-272.72,-272.78,-0,960,-1,21.1,8.8,-13.3,20.7,9.2,-13.0,5.73,2.03,-10.8,25.5
2015-05-10 01:10:00,0.0,1.90810,0.00043,403.784,0.017,0.2902,0.0013,140.000,45.000,34011.56444,1.91354,405.203,32.624,45.068,45.000,0.00,0.09,-272.72,-272.76,0,961,-1,21.1,8.6,-13.6,20.7,8.9,-13.4,5.73,1.91,-10.7,25.5
2015-05-10 01:11:00,0.0,1.90786,0.00034,403.753,0.032,0.2945,0.0022,139.999,45.000,34012.25890,1.91349,405.194,32.625,45.068,45.000,0.00,0.09,-272.72,-272.77,-1,961,-1,21.1,8.7,-13.4,20.7,8.9,-13.4,5.73,1.89,-10.8,25.5
2015-05-10 01:12:00,0.0,1.90804,0.00029,403.741,0.028,0.2938,0.0018,140.001,45.000,34013.48635,1.91358,405.180,32.621,45.068,45.000,0.00,0.09,-272.72,-272.78,-0,961,-1,21.1,8.7,-13.5,20.7,9.0,-13.3,5.73,2.01,-10.8,25.4
2015-05-10 01:13:00,0.0,1.90756,0.00033,403.742,0.041,0.2928,0.0016,140.000,45.000,34014.72038,1.91311,405.175,32.622,45.068,45.000,0.00,0.09,-272.71,-272.77,-1,962,-1,21.1,8.6,-13.5,20.7,8.9,-13.4,5.73,1.98,-10.7,25.4
2015-05-10 01:14:00,0.0,1.90748,0.00038,403.749,0.027,0.2936,0.0020,140.001,45.000,34014.85782,1.91306,405.185,32.624,45.068,45.000,0.00,0.09,-272.72,-272.76,-0,960,-1,21.2,8.7,-13.5,20.8,8.9,-13.4,5.73,1.88,-10.7,25.5
2015-05-10 01:15:00,0.0,1.90734,0.00044,403.704,0.034,0.2960,0.0018,139.998,45.000,34014.72338,1.91292,405.153,32.621,45.068,45.000,0.00,0.09,-272.72,-272.78,0,962,-1,21.2,8.7,-13.4,20.8,9.0,-13.3,5.73,1.93,-10.7,25.4
2015-05-10 01:16:00,0.0,1.90717,0.00033,403.734,0.019,0.2916,0.0020,139.997,45.000,34014.40361,1.91273,405.161,32.603,45.068,45.000,0.00,0.09,-272.72,-272.78,-1,962,-1,21.2,8.6,-13.5,20.8,8.9,-13.3,5.73,2.04,-10.7,25.5
2015-05-10 01:17:00,0.0,1.90703,0.00026,403.724,0.028,0.2906,0.0014,139.996,45.000,34014.08392,1.91251,405.145,32.602,45.068,45.000,0.00,0.09,-272.71,-272.77,-1,962,-1,21.2,8.5,-13.6,20.8,8.9,-13.4,5.73,1.94,-10.7,25.5
2015-05-10 01:18:00,0.0,1.90720,0.00033,403.702,0.031,0.2926,0.0012,140.000,45.000,34015.36637,1.91274,405.135,32.587,45.068,45.000,0.00,0.09,-272.71,-272.76,-1,962,-1,21.2,8.6,-13.5,20.8,8.9,-13.4,5.73,1.87,-10.7,25.5
2015-05-10 01:19:00,0.0,1.90707,0.00030,403.712,0.039,0.2918,0.0025,140.000,45.000,34015.83359,1.91259,405.140,32.591,45.068,45.000,0.00,0.09,-272.73,-272.77,0,961,-1,21.2,8.6,-13.5,20.8,8.9,-13.4,5.73,2.00,-10.7,25.5
2015-05-10 01:20:00,0.0,1.90715,0.00044,403.701,0.027,0.2936,0.0018,139.999,45.000,34013.26006,1.91266,405.137,32.573,45.069,45.000,0.00,0.09,-272.71,-272.77,0,962,-1,21.2,8.6,-13.5,20.8,8.9,-13.4,5.73,1.99,-10.7,25.5
2015-05-10 01:21:00,0.0,1.90708,0.00049,403.711,0.042,0.2906,0.0026,140.003,45.000,34016.20306,1.91261,405.132,32.583,45.069,45.000,0.00,0.09,-272.70,-272.76,-1,961,-1,21.2,8.6,-13.6,20.8,8.9,-13.4,5.73,1.88,-10.7,25.5
2015-05-10 01:22:00,0.0,1.90696,0.00044,403.728,0.037,0.2893,0.0014,140.001,45.000,34014.14982,1.91244,405.144,32.590,45.069,45.000,0.00,0.09,-272.72,-272.77,-0,962,-1,21.2,8.5,-13.6,20.8,8.8,-13.5,5.73,1.92,-10.7,25.5
2015-05-10 01:23:00,0.0,1.90682,0.00033,403.730,0.025,0.2908,0.0018,139.999,45.000,34013.98782,1.91231,405.153,32.607,45.068,45.000,0.00,0.09,-272.72,-272.77,-1,963,-1,21.2,8.5,-13.6,20.8,8.8,-13.5,5.73,2.03,-10.7,25.5
2015-05-10 01:24:00,0.0,1.90671,0.00041,403.673,0.034,0.2932,0.0011,139.999,45.000,34015.30059,1.91228,405.109,32.609,45.068,45.000,0.00,0.09,-272.71,-272.78,-0,961,-1,21.2,8.6,-13.5,20.8,8.9,-13.4,5.73,1.95,-10.7,25.5
2015-05-10 01:25:00,0.0,1.90661,0.00040,403.697,0.028,0.2949,0.0019,139.998,45.000,34012.05388,1.91219,405.140,32.614,45.068,45.000,0.00,0.09,-272.72,-272.78,-0,962,-1,21.2,8.6,-13.4,20.8,9.0,-13.3,5.73,1.87,-10.8,25.5
2015-05-10 01:26:00,0.0,1.90614,0.00043,403.689,0.029,0.2964,0.0018,139.996,45.000,34012.22141,1.91174,405.139,32.624,45.068,45.000,0.00,0.09,-272.73,-272.78,-1,961,-1,21.2,8.7,-13.4,20.8,9.0,-13.3,5.73,1.99,-10.7,25.5
2015-05-10 01:27:00,0.0,1.90632,0.00041,403.689,0.034,0.2943,0.0019,139.999,45.000,34013.87822,1.91190,405.132,32.630,45.068,45.000,0.00,0.09,-272.72,-272.77,-0,961,-1,21.2,8.6,-13.5,20.8,9.0,-13.3,5.73,2.01,-10.7,25.5
2015-05-10 01:28:00,0.0,1.90635,0.00043,403.718,0.028,0.2933,0.0015,139.995,45.000,34014.11050,1.91187,405.152,32.632,45.068,45.000,0.00,0.09,-272.72,-272.77,-1,963,-1,21.2,8.6,-13.5,20.8,8.9,-13.3,5.73,1.88,-10.7,25.5
2015-05-10 01:29:00,0.0,1.90656,0.00042,403.696,0.028,0.2940,0.0018,140.000,45.000,34011.51044,1.91213,405.135,32.634,45.068,45.000,0.00,0.09,-272.72,-272.77,-0,961,-1,21.2,8.6,-13.4,20.8,9.0,-13.3,5.73,1.91,-10.7,25.5
2015-05-10 01:30:00,0.0,1.90661,0.00035,403.723,0.035,0.2941,0.0017,139.997,45.000,34011.47942,1.91217,405.161,32.641,45.068,45.000,0.00,0.09,-272.72,-272.77,-1,963,-1,21.2,8.6,-13.4,20.9,9.0,-13.3,5.73,2.02,-10.6,25.4
2015-05-10 01:31:00,0.0,1.90629,0.00034,403.695,0.032,0.2972,0.0022,140.000,45.000,34014.16512,1.91194,405.148,32.640,45.068,45.000,0.00,0.30,-270.96,-272.07,-1,961,-1,21.3,8.7,-13.4,20.9,9.0,-13.2,5.43,2.14,-13.2,25.5
2015-05-10 01:32:00,0.0,1.90651,0.00040,403.685,0.040,0.2978,0.0017,140.000,45.000,34012.68576,1.91211,405.145,32.674,45.068,45.000,0.00,0.09,-272.72,-272.78,-0,962,-1,21.3,8.7,-13.3,20.9,9.0,-13.1,5.73,1.86,-10.6,25.5
2015-05-10 01:33:00,0.0,1.90610,0.00040,403.651,0.034,0.2973,0.0014,139.995,45.000,34013.08697,1.91171,405.105,32.687,45.068,45.000,0.00,0.09,-272.72,-272.78,-1,962,-1,21.3,8.7,-13.3,20.9,9.0,-13.1,5.73,1.98,-10.7,25.5
2015-05-10 01:34:00,0.0,1.90628,0.00037,403.687,0.033,0.2962,0.0016,140.001,45.000,34015.28572,1.91190,405.137,32.688,45.068,45.000,0.00,0.09,-272.72,-272.77,-0,961,-1,21.3,8.7,-13.4,20.9,9.0,-13.2,5.73,2.02,-10.6,25.5
2015-05-10 01:35:00,0.0,1.90632,0.00035,403.697,0.035,0.2980,0.0022,139.996,45.000,34012.00066,1.91195,405.156,32.688,45.068,45.000,0.00,0.09,-272.72,-272.78,-1,963,-1,21.3,8.7,-13.3,20.9,9.0,-13.2,5.73,1.89,-10.7,25.5
2015-05-10 01:36:00,0.0,1.90617,0.00036,403.682,0.034,0.2957,0.0019,139.999,45.000,34016.22012,1.91179,405.128,32.673,45.068,45.000,0.00,0.09,-272.72,-272.78,-1,962,-1,21.3,8.7,-13.4,20.9,9.0,-13.2,5.73,1.90,-10.6,25.5
2015-05-10 01:37:00,0.0,1.90602,0.00032,403.660,0.030,0.3001,0.0017,140.002,45.000,34019.78088,1.91170,405.129,32.639,45.068,45.000,0.00,0.09,-272.72,-272.77,0,962,-1,21.3,8.8,-13.2,20.9,9.1,-13.1,5.73,2.00,-10.7,25.5
2015-05-10 01:38:00,0.0,1.90559,0.00033,403.651,0.033,0.3025,0.0020,139.996,45.000,34019.14205,1.91133,405.131,32.628,45.068,45.000,0.00,0.09,-272.72,-272.77,-1,963,-1,21.3,8.8,-13.1,20.9,9.1,-13.0,5.73,1.98,-10.7,25.5
2015-05-10 01:39:00,0.0,1.90560,0.00045,403.651,0.024,0.3015,0.0016,139.995,45.000,34020.03100,1.91128,405.126,32.626,45.068,45.000,0.00,0.09,-272.72,-272.77,-1,962,-1,21.3,8.8,-13.2,20.9,9.1,-13.0,5.73,1.88,-10.6,25.5
2015-05-10 01:40:00,0.0,1.90565,0.00037,403.650,0.027,0.2993,0.0018,140.000,45.000,34022.99416,1.91131,405.116,32.625,45.069,45.000,0.00,0.09,-272.72,-272.78,-1,963,-1,21.3,8.7,-13.3,20.9,9.1,-13.1,5.73,1.92,-10.6,25.5
2015-05-10 01:41:00,0.0,1.90584,0.00042,403.655,0.034,0.2977,0.0013,139.997,45.000,34021.81673,1.91145,405.111,32.625,45.069,45.000,0.00,0.09,-272.71,-272.77,-1,964,-1,21.3,8.7,-13.3,20.9,9.0,-13.2,5.73,2.02,-10.7,25.5
2015-05-10 01:42:00,0.0,1.90580,0.00037,403.658,0.028,0.2977,0.0025,140.001,45.000,34022.93640,1.91146,405.117,32.628,45.068,45.000,0.00,0.09,-272.72,-272.77,-1,963,-1,21.3,8.7,-13.3,20.9,9.0,-13.2,5.73,1.97,-10.6,25.5
2015-05-10 01:43:00,0.0,1.90567,0.00038,403.677,0.041,0.2959,0.0014,140.000,45.000,34024.41631,1.91123,405.125,32.636,45.069,45.000,0.00,0.09,-272.72,-272.78,-0,963,-1,21.3,8.6,-13.4,20.9,9.0,-13.2,5.73,1.87,-10.6,25.5
2015-05-10 01:44:00,0.0,1.90597,0.00040,403.679,0.026,0.2950,0.0024,140.000,45.000,34021.64555,1.91151,405.120,32.669,45.068,45.000,0.00,0.09,-272.71,-272.77,-1,964,-1,21.3,8.6,-13.4,20.9,8.9,-13.3,5.73,1.95,-10.6,25.6
2015-05-10 01:45:00,0.0,1.90587,0.00038,403.685,0.027,0.2959,0.0016,140.000,45.000,34020.08292,1.91149,405.134,32.674,45.068,45.000,0.00,0.09,-272.72,-272.78,-1,962,-1,21.3,8.6,-13.4,20.9,8.9,-13.3,5.73,2.03,-10.6,25.6
2015-05-10 01:46:00,0.0,1.90597,0.00037,403.672,0.032,0.2970,0.0028,140.003,45.000,34021.76948,1.91159,405.125,32.685,45.068,45.000,0.00,0.09,-272.72,-272.78,-0,963,-1,21.3,8.6,-13.4,20.9,9.0,-13.2,5.73,1.92,-10.6,25.6